Flag for Estonia Weather past 2 weeks in Tallinn, Estonia

Now
64 °F

Scattered clouds.


Feels Like: 64 °F
Forecast: 56 / 65 °F
Wind: 15 mph from Southwest

Location: Tallinn

Current Time: Aug 2, 2015 at 6:27:10 PM

Latest Report: Aug 2, 2015 at 5:50 PM


Visibility: N/A

Pressure: 30.07 "Hg

Humidity: 60%

Dew point: 50 °F

Location of TallinnLocation

Historic Weather in Tallinn — Graph

°F

Tallinn temperature yesterday

Maximum temperature yesterday: 66 °F (at 1:50 PM)
Minimum temperature yesterday: 48 °F (at 4:50 AM)
Average temperature yesterday: 58 °F

Past Weeks' High & Low Weather Summary

 TemperatureHumidityPressure
High72 °F (Jul 26, 3:50 PM)100% (Jul 18, 9:50 PM)30.09 "Hg (Jul 18, 9:50 PM)
Low45 °F (Jul 28, 3:50 AM)43% (Jul 27, 5:20 PM)29.47 "Hg (Jul 30, 9:20 AM)
Average60 °F80%29.70 "Hg
* Reported Jul 18 5:20 PM — Aug 2 5:20 PM, Tallinn, Weather by CustomWeather, © 2015

Note: Actual official high and low records may vary slightly from our data, if they occured in-between our weather recording intervals... More about our weather records

Advertising

Tallinn weather history for previous 24 hours

 ConditionsComfort  
Time TempWeatherWind HumidityBarometerVisibility
5:20 PM
Sun, Aug 2
66 °FScattered clouds.16 mph60%30.07 "HgN/A
4:50 PM64 °FScattered clouds.15 mph60%30.07 "HgN/A
4:20 PM64 °FScattered clouds.18 mph64%30.07 "HgN/A
3:50 PM66 °FScattered clouds.14 mph52%30.07 "HgN/A
3:20 PM68 °FPartly sunny.16 mph53%30.07 "HgN/A
2:50 PM68 °FPartly sunny.16 mph56%30.07 "HgN/A
2:20 PM68 °FScattered clouds.14 mph53%30.07 "HgN/A
1:50 PM68 °FScattered clouds.14 mph53%30.07 "HgN/A
1:20 PM68 °FScattered clouds.15 mph53%30.07 "HgN/A
12:50 PM68 °FScattered clouds.14 mph56%30.07 "HgN/A
12:20 PM66 °FPassing clouds.13 mph64%30.07 "HgN/A
11:50 AM66 °FPassing clouds.13 mph68%30.09 "HgN/A
11:20 AM64 °FPassing clouds.13 mph73%30.09 "HgN/A
10:50 AM64 °FPassing clouds.13 mph78%30.07 "HgN/A
10:20 AM64 °FPassing clouds.12 mph78%30.07 "HgN/A
9:50 AM64 °FPassing clouds.12 mph73%30.07 "HgN/A
9:20 AM63 °FSunny.13 mph77%30.07 "Hg10 mi
8:50 AM63 °FSunny.13 mph77%30.07 "Hg10 mi
8:20 AM61 °FSunny.12 mph83%30.07 "Hg10 mi
7:50 AM59 °FSunny.12 mph88%30.07 "Hg10 mi
7:20 AM57 °FSunny.10 mph94%30.07 "Hg10 mi
6:50 AM57 °FSunny.12 mph88%30.04 "Hg10 mi
6:20 AM55 °FSunny.10 mph94%30.04 "Hg10 mi
5:50 AM55 °FClear.9 mph94%30.04 "Hg10 mi
5:20 AM55 °FClear.9 mph94%30.04 "Hg10 mi
4:50 AM54 °FClear.9 mph100%30.04 "Hg10 mi
4:20 AM54 °FClear.9 mph94%30.04 "Hg10 mi
3:50 AM54 °FPassing clouds.8 mph94%30.04 "HgN/A
3:20 AM54 °FPassing clouds.9 mph94%30.04 "HgN/A
2:50 AM54 °FClear.9 mph94%30.01 "Hg10 mi
2:20 AM54 °FClear.8 mph94%30.01 "Hg10 mi
1:50 AM54 °FClear.6 mph94%30.01 "Hg10 mi
1:20 AM54 °FPassing clouds.5 mph94%30.01 "HgN/A
12:20 AM55 °FClear.7 mph82%30.01 "Hg10 mi
11:20 PM
Sat, Aug 1
55 °FClear.10 mph82%29.98 "Hg10 mi
10:50 PM57 °FClear.13 mph77%29.98 "Hg10 mi
10:20 PM57 °FSunny.14 mph77%29.98 "Hg10 mi
9:50 PM57 °FSunny.15 mph72%29.95 "Hg10 mi
9:20 PM57 °FPassing clouds.17 mph72%29.95 "HgN/A
8:50 PM59 °FPassing clouds.17 mph68%29.95 "HgN/A
8:20 PM59 °FPassing clouds.21 mph68%29.95 "HgN/A
7:50 PM59 °FScattered clouds.20 mph72%29.95 "HgN/A
7:20 PM61 °FScattered clouds.22 mph63%29.95 "HgN/A
6:50 PM61 °FScattered clouds.22 mph63%29.92 "HgN/A
6:20 PM63 °FScattered clouds.21 mph59%29.92 "HgN/A
Weather by CustomWeather, © 2015

See weather overviewHow to use our weather pages